Home > Weather > Middlesbrough > Past weeks

Flag for United Kingdom Past Weather in Middlesbrough, England, United Kingdom — Yesterday and Last 2 Weeks

Now
57 °F

Sunny.


Feels Like: 55 °F
Forecast: 56 / 68 °F
Wind: 8 mph from Southwest

Location: Tees-Side

Current Time: Jul 26, 2016 at 1:55:34 AM

Latest Report: Jul 25, 2016 at 9:50 PM


Visibility: 10 mi

Pressure: 30.07 "Hg

Humidity: 77%

Dew Point: 50 °F

Location of MiddlesbroughLocation

Past Weather in Middlesbrough — Graph

°F

Middlesbrough Temperature Yesterday

Maximum temperature yesterday: 68 °F (at 11:20 AM)
Minimum temperature yesterday: 57 °F (at 9:50 PM)
Average temperature yesterday: 64 °F

High & Low Weather Summary for the Past Weeks

 TemperatureHumidityPressure
High86 °F (Jul 19, 2:50 PM)100% (Jul 11, 6:20 AM)30.24 "Hg (Jul 11, 6:20 AM)
Low46 °F (Jul 14, 5:50 AM)38% (Jul 19, 6:20 PM)29.42 "Hg (Jul 11, 5:50 AM)
Average67 °F68%30.00 "Hg
* Reported Jul 10 9:20 PM — Jul 25 9:50 PM, Middlesbrough, Weather by CustomWeather, © 2016

Note: Actual official high and low records may vary slightly from our data, if they occured in-between our weather recording intervals... More about our weather records

Advertising

Middlesbrough Weather History for the Previous 24 Hours

Scroll right to see more
 ConditionsComfort  
Time TempWeatherWind HumidityBarometerVisibility
9:50 PM
Mon, Jul 25
57 °FSunny.8 mph77%30.07 "Hg10 mi
9:20 PM59 °FSunny.12 mph72%30.07 "Hg10 mi
8:50 PM61 °FSunny.8 mph72%30.04 "Hg10 mi
8:20 PM63 °FPassing clouds.10 mph68%30.04 "HgN/A
7:50 PM63 °FPassing clouds.10 mph68%30.04 "HgN/A
7:20 PM64 °FPassing clouds.10 mph60%30.04 "HgN/A
6:50 PM64 °FScattered clouds.14 mph64%30.04 "HgN/A
6:20 PM64 °FScattered clouds.14 mph64%30.04 "HgN/A
5:50 PM66 °FScattered clouds.16 mph60%30.04 "HgN/A
5:20 PM64 °FPassing clouds.12 mph64%30.01 "HgN/A
4:50 PM66 °FPassing clouds.16 mph56%30.01 "HgN/A
4:20 PM64 °FPassing clouds.16 mph60%30.01 "HgN/A
3:50 PM64 °FPassing clouds.17 mph60%30.01 "HgN/A
3:20 PM64 °FPassing clouds.17 mph60%30.01 "HgN/A
2:50 PM66 °FPassing clouds.17 mph60%30.01 "HgN/A
2:20 PM66 °FPassing clouds.20 mph56%30.01 "HgN/A
1:50 PM68 °FPassing clouds.21 mph56%30.01 "HgN/A
1:20 PM66 °FPassing clouds.21 mph56%30.01 "HgN/A
12:50 PM66 °FPassing clouds.21 mph56%30.01 "HgN/A
12:20 PM68 °FPassing clouds.21 mph53%29.98 "HgN/A
11:50 AM68 °FScattered clouds.16 mph53%29.98 "HgN/A
11:20 AM68 °FScattered clouds.15 mph53%29.98 "HgN/A
10:50 AM66 °FScattered clouds.14 mph60%29.98 "HgN/A
10:20 AM66 °FScattered clouds.14 mph60%29.98 "HgN/A
9:50 AM66 °FScattered clouds.17 mph60%29.98 "HgN/A
9:20 AM64 °FScattered clouds.12 mph68%29.98 "HgN/A
8:50 AM63 °FScattered clouds.10 mph73%29.98 "HgN/A
8:20 AM61 °FPassing clouds.9 mph77%29.98 "HgN/A
7:50 AM61 °FPassing clouds.9 mph77%29.98 "HgN/A
7:20 AM59 °FSunny.6 mph82%29.98 "Hg10 mi
Weather by CustomWeather, © 2016

See weather overviewHow to use our weather pages